Index of /20260501/WXO-DD/model_gdps/15km/00/141
Name Last modified Size Description
Parent Directory -
20260501T00Z_MSC_GDPS_AbsoluteVorticity_IsbL-0200_LatLon0.15_PT141H.grib2 2026-05-01 04:29 1.5M
20260501T00Z_MSC_GDPS_AbsoluteVorticity_IsbL-0250_LatLon0.15_PT141H.grib2 2026-05-01 04:29 1.3M
20260501T00Z_MSC_GDPS_AbsoluteVorticity_IsbL-0500_LatLon0.15_PT141H.grib2 2026-05-01 04:29 1.5M
20260501T00Z_MSC_GDPS_AbsoluteVorticity_IsbL-0700_LatLon0.15_PT141H.grib2 2026-05-01 04:29 1.3M
20260501T00Z_MSC_GDPS_AbsoluteVorticity_IsbL-0850_LatLon0.15_PT141H.grib2 2026-05-01 04:29 1.6M
20260501T00Z_MSC_GDPS_AirTemp_AGL-120m_LatLon0.15_PT141H.grib2 2026-05-01 04:29 904K
20260501T00Z_MSC_GDPS_AirTemp_AGL-2m_LatLon0.15_PT141H.grib2 2026-05-01 04:29 1.0M
20260501T00Z_MSC_GDPS_AirTemp_AGL-40m_LatLon0.15_PT141H.grib2 2026-05-01 04:29 928K
20260501T00Z_MSC_GDPS_AirTemp_AGL-80m_LatLon0.15_PT141H.grib2 2026-05-01 04:29 915K
20260501T00Z_MSC_GDPS_AirTemp_IsbL-0001_LatLon0.15_PT141H.grib2 2026-05-01 04:29 656K
20260501T00Z_MSC_GDPS_AirTemp_IsbL-0005_LatLon0.15_PT141H.grib2 2026-05-01 04:29 685K
20260501T00Z_MSC_GDPS_AirTemp_IsbL-0010_LatLon0.15_PT141H.grib2 2026-05-01 04:29 696K
20260501T00Z_MSC_GDPS_AirTemp_IsbL-0020_LatLon0.15_PT141H.grib2 2026-05-01 04:29 788K
20260501T00Z_MSC_GDPS_AirTemp_IsbL-0030_LatLon0.15_PT141H.grib2 2026-05-01 04:29 838K
20260501T00Z_MSC_GDPS_AirTemp_IsbL-0050_LatLon0.15_PT141H.grib2 2026-05-01 04:29 804K
20260501T00Z_MSC_GDPS_AirTemp_IsbL-0100_LatLon0.15_PT141H.grib2 2026-05-01 04:29 962K
20260501T00Z_MSC_GDPS_AirTemp_IsbL-0150_LatLon0.15_PT141H.grib2 2026-05-01 04:29 963K
20260501T00Z_MSC_GDPS_AirTemp_IsbL-0175_LatLon0.15_PT141H.grib2 2026-05-01 04:29 958K
20260501T00Z_MSC_GDPS_AirTemp_IsbL-0200_LatLon0.15_PT141H.grib2 2026-05-01 04:29 1.0M
20260501T00Z_MSC_GDPS_AirTemp_IsbL-0225_LatLon0.15_PT141H.grib2 2026-05-01 04:29 1.0M
20260501T00Z_MSC_GDPS_AirTemp_IsbL-0250_LatLon0.15_PT141H.grib2 2026-05-01 04:29 1.0M
20260501T00Z_MSC_GDPS_AirTemp_IsbL-0275_LatLon0.15_PT141H.grib2 2026-05-01 04:29 1.0M
20260501T00Z_MSC_GDPS_AirTemp_IsbL-0300_LatLon0.15_PT141H.grib2 2026-05-01 04:29 944K
20260501T00Z_MSC_GDPS_AirTemp_IsbL-0350_LatLon0.15_PT141H.grib2 2026-05-01 04:29 928K
20260501T00Z_MSC_GDPS_AirTemp_IsbL-0400_LatLon0.15_PT141H.grib2 2026-05-01 04:29 944K
20260501T00Z_MSC_GDPS_AirTemp_IsbL-0450_LatLon0.15_PT141H.grib2 2026-05-01 04:29 968K
20260501T00Z_MSC_GDPS_AirTemp_IsbL-0500_LatLon0.15_PT141H.grib2 2026-05-01 04:29 1.0M
20260501T00Z_MSC_GDPS_AirTemp_IsbL-0550_LatLon0.15_PT141H.grib2 2026-05-01 04:29 1.0M
20260501T00Z_MSC_GDPS_AirTemp_IsbL-0600_LatLon0.15_PT141H.grib2 2026-05-01 04:29 893K
20260501T00Z_MSC_GDPS_AirTemp_IsbL-0650_LatLon0.15_PT141H.grib2 2026-05-01 04:29 921K
20260501T00Z_MSC_GDPS_AirTemp_IsbL-0700_LatLon0.15_PT141H.grib2 2026-05-01 04:29 958K
20260501T00Z_MSC_GDPS_AirTemp_IsbL-0750_LatLon0.15_PT141H.grib2 2026-05-01 04:29 1.0M
20260501T00Z_MSC_GDPS_AirTemp_IsbL-0800_LatLon0.15_PT141H.grib2 2026-05-01 04:29 1.1M
20260501T00Z_MSC_GDPS_AirTemp_IsbL-0850_LatLon0.15_PT141H.grib2 2026-05-01 04:29 1.1M
20260501T00Z_MSC_GDPS_AirTemp_IsbL-0875_LatLon0.15_PT141H.grib2 2026-05-01 04:29 1.2M
20260501T00Z_MSC_GDPS_AirTemp_IsbL-0900_LatLon0.15_PT141H.grib2 2026-05-01 04:29 1.2M
20260501T00Z_MSC_GDPS_AirTemp_IsbL-0925_LatLon0.15_PT141H.grib2 2026-05-01 04:29 1.1M
20260501T00Z_MSC_GDPS_AirTemp_IsbL-0950_LatLon0.15_PT141H.grib2 2026-05-01 04:29 1.1M
20260501T00Z_MSC_GDPS_AirTemp_IsbL-0970_LatLon0.15_PT141H.grib2 2026-05-01 04:29 1.1M
20260501T00Z_MSC_GDPS_AirTemp_IsbL-0985_LatLon0.15_PT141H.grib2 2026-05-01 04:29 1.1M
20260501T00Z_MSC_GDPS_AirTemp_IsbL-1000_LatLon0.15_PT141H.grib2 2026-05-01 04:29 896K
20260501T00Z_MSC_GDPS_AirTemp_IsbL-1015_LatLon0.15_PT141H.grib2 2026-05-01 04:29 857K
20260501T00Z_MSC_GDPS_Albedo_Sfc_LatLon0.15_PT141H.grib2 2026-05-01 04:29 244K
20260501T00Z_MSC_GDPS_CAPE_Sfc_LatLon0.15_PT141H.grib2 2026-05-01 04:29 3.9M
20260501T00Z_MSC_GDPS_CIN_Sfc_LatLon0.15_PT141H.grib2 2026-05-01 04:29 2.8M
20260501T00Z_MSC_GDPS_CloudWater_EAtm_LatLon0.15_PT141H.grib2 2026-05-01 04:29 538K
20260501T00Z_MSC_GDPS_ConvectivePrecip-Accum_Sfc_LatLon0.15_PT141H.grib2 2026-05-01 04:29 3.6M
20260501T00Z_MSC_GDPS_DewPointDepression_AGL-2m_LatLon0.15_PT141H.grib2 2026-05-01 04:29 764K
20260501T00Z_MSC_GDPS_DewPointDepression_IsbL-0010_LatLon0.15_PT141H.grib2 2026-05-01 04:29 72K
20260501T00Z_MSC_GDPS_DewPointDepression_IsbL-0020_LatLon0.15_PT141H.grib2 2026-05-01 04:29 67K
20260501T00Z_MSC_GDPS_DewPointDepression_IsbL-0030_LatLon0.15_PT141H.grib2 2026-05-01 04:29 87K
20260501T00Z_MSC_GDPS_DewPointDepression_IsbL-0050_LatLon0.15_PT141H.grib2 2026-05-01 04:29 381K
20260501T00Z_MSC_GDPS_DewPointDepression_IsbL-0100_LatLon0.15_PT141H.grib2 2026-05-01 04:29 399K
20260501T00Z_MSC_GDPS_DewPointDepression_IsbL-0150_LatLon0.15_PT141H.grib2 2026-05-01 04:29 485K
20260501T00Z_MSC_GDPS_DewPointDepression_IsbL-0175_LatLon0.15_PT141H.grib2 2026-05-01 04:29 587K
20260501T00Z_MSC_GDPS_DewPointDepression_IsbL-0200_LatLon0.15_PT141H.grib2 2026-05-01 04:29 698K
20260501T00Z_MSC_GDPS_DewPointDepression_IsbL-0225_LatLon0.15_PT141H.grib2 2026-05-01 04:29 772K
20260501T00Z_MSC_GDPS_DewPointDepression_IsbL-0250_LatLon0.15_PT141H.grib2 2026-05-01 04:29 863K
20260501T00Z_MSC_GDPS_DewPointDepression_IsbL-0275_LatLon0.15_PT141H.grib2 2026-05-01 04:29 886K
20260501T00Z_MSC_GDPS_DewPointDepression_IsbL-0300_LatLon0.15_PT141H.grib2 2026-05-01 04:29 929K
20260501T00Z_MSC_GDPS_DewPointDepression_IsbL-0350_LatLon0.15_PT141H.grib2 2026-05-01 04:29 967K
20260501T00Z_MSC_GDPS_DewPointDepression_IsbL-0400_LatLon0.15_PT141H.grib2 2026-05-01 04:29 1.0M
20260501T00Z_MSC_GDPS_DewPointDepression_IsbL-0450_LatLon0.15_PT141H.grib2 2026-05-01 04:29 1.0M
20260501T00Z_MSC_GDPS_DewPointDepression_IsbL-0500_LatLon0.15_PT141H.grib2 2026-05-01 04:29 1.0M
20260501T00Z_MSC_GDPS_DewPointDepression_IsbL-0550_LatLon0.15_PT141H.grib2 2026-05-01 04:29 1.0M
20260501T00Z_MSC_GDPS_DewPointDepression_IsbL-0600_LatLon0.15_PT141H.grib2 2026-05-01 04:29 1.0M
20260501T00Z_MSC_GDPS_DewPointDepression_IsbL-0650_LatLon0.15_PT141H.grib2 2026-05-01 04:29 1.1M
20260501T00Z_MSC_GDPS_DewPointDepression_IsbL-0700_LatLon0.15_PT141H.grib2 2026-05-01 04:29 1.1M
20260501T00Z_MSC_GDPS_DewPointDepression_IsbL-0750_LatLon0.15_PT141H.grib2 2026-05-01 04:29 1.1M
20260501T00Z_MSC_GDPS_DewPointDepression_IsbL-0800_LatLon0.15_PT141H.grib2 2026-05-01 04:29 1.1M
20260501T00Z_MSC_GDPS_DewPointDepression_IsbL-0850_LatLon0.15_PT141H.grib2 2026-05-01 04:29 1.2M
20260501T00Z_MSC_GDPS_DewPointDepression_IsbL-0875_LatLon0.15_PT141H.grib2 2026-05-01 04:29 1.1M
20260501T00Z_MSC_GDPS_DewPointDepression_IsbL-0900_LatLon0.15_PT141H.grib2 2026-05-01 04:29 1.1M
20260501T00Z_MSC_GDPS_DewPointDepression_IsbL-0925_LatLon0.15_PT141H.grib2 2026-05-01 04:29 1.0M
20260501T00Z_MSC_GDPS_DewPointDepression_IsbL-0950_LatLon0.15_PT141H.grib2 2026-05-01 04:29 1.0M
20260501T00Z_MSC_GDPS_DewPointDepression_IsbL-0970_LatLon0.15_PT141H.grib2 2026-05-01 04:29 1.0M
20260501T00Z_MSC_GDPS_DewPointDepression_IsbL-0985_LatLon0.15_PT141H.grib2 2026-05-01 04:29 1.0M
20260501T00Z_MSC_GDPS_DewPointDepression_IsbL-1000_LatLon0.15_PT141H.grib2 2026-05-01 04:29 971K
20260501T00Z_MSC_GDPS_DewPointDepression_IsbL-1015_LatLon0.15_PT141H.grib2 2026-05-01 04:29 918K
20260501T00Z_MSC_GDPS_DewPoint_AGL-2m_LatLon0.15_PT141H.grib2 2026-05-01 04:29 607K
20260501T00Z_MSC_GDPS_DownwardLongwaveRadiationFlux-Accum_Sfc_LatLon0.15_PT141H.grib2 2026-05-01 04:29 835K
20260501T00Z_MSC_GDPS_DownwardShortwaveRadiationFlux-Accum_NTAtm_LatLon0.15_PT141H.grib2 2026-05-01 04:29 173K
20260501T00Z_MSC_GDPS_DownwardShortwaveRadiationFlux-Accum_Sfc_LatLon0.15_PT141H.grib2 2026-05-01 04:29 1.0M
20260501T00Z_MSC_GDPS_FreezingRain-Accum1h_Sfc_LatLon0.15_PT141H.grib2 2026-05-01 04:29 38K
20260501T00Z_MSC_GDPS_FreezingRain-Accum3h_Sfc_LatLon0.15_PT141H.grib2 2026-05-01 04:29 51K
20260501T00Z_MSC_GDPS_FreezingRain-Accum_Sfc_LatLon0.15_PT141H.grib2 2026-05-01 04:29 393K
20260501T00Z_MSC_GDPS_GeopotentialHeight_IsbL-0001_LatLon0.15_PT141H.grib2 2026-05-01 04:29 418K
20260501T00Z_MSC_GDPS_GeopotentialHeight_IsbL-0005_LatLon0.15_PT141H.grib2 2026-05-01 04:29 488K
20260501T00Z_MSC_GDPS_GeopotentialHeight_IsbL-0010_LatLon0.15_PT141H.grib2 2026-05-01 04:29 477K
20260501T00Z_MSC_GDPS_GeopotentialHeight_IsbL-0020_LatLon0.15_PT141H.grib2 2026-05-01 04:29 415K
20260501T00Z_MSC_GDPS_GeopotentialHeight_IsbL-0030_LatLon0.15_PT141H.grib2 2026-05-01 04:29 420K
20260501T00Z_MSC_GDPS_GeopotentialHeight_IsbL-0050_LatLon0.15_PT141H.grib2 2026-05-01 04:29 569K
20260501T00Z_MSC_GDPS_GeopotentialHeight_IsbL-0100_LatLon0.15_PT141H.grib2 2026-05-01 04:29 602K
20260501T00Z_MSC_GDPS_GeopotentialHeight_IsbL-0150_LatLon0.15_PT141H.grib2 2026-05-01 04:29 622K
20260501T00Z_MSC_GDPS_GeopotentialHeight_IsbL-0175_LatLon0.15_PT141H.grib2 2026-05-01 04:29 626K
20260501T00Z_MSC_GDPS_GeopotentialHeight_IsbL-0200_LatLon0.15_PT141H.grib2 2026-05-01 04:29 631K
20260501T00Z_MSC_GDPS_GeopotentialHeight_IsbL-0225_LatLon0.15_PT141H.grib2 2026-05-01 04:29 630K
20260501T00Z_MSC_GDPS_GeopotentialHeight_IsbL-0250_LatLon0.15_PT141H.grib2 2026-05-01 04:29 636K
20260501T00Z_MSC_GDPS_GeopotentialHeight_IsbL-0275_LatLon0.15_PT141H.grib2 2026-05-01 04:29 640K
20260501T00Z_MSC_GDPS_GeopotentialHeight_IsbL-0300_LatLon0.15_PT141H.grib2 2026-05-01 04:29 633K
20260501T00Z_MSC_GDPS_GeopotentialHeight_IsbL-0350_LatLon0.15_PT141H.grib2 2026-05-01 04:29 632K
20260501T00Z_MSC_GDPS_GeopotentialHeight_IsbL-0400_LatLon0.15_PT141H.grib2 2026-05-01 04:29 621K
20260501T00Z_MSC_GDPS_GeopotentialHeight_IsbL-0450_LatLon0.15_PT141H.grib2 2026-05-01 04:29 612K
20260501T00Z_MSC_GDPS_GeopotentialHeight_IsbL-0500_LatLon0.15_PT141H.grib2 2026-05-01 04:29 531K
20260501T00Z_MSC_GDPS_GeopotentialHeight_IsbL-0550_LatLon0.15_PT141H.grib2 2026-05-01 04:29 528K
20260501T00Z_MSC_GDPS_GeopotentialHeight_IsbL-0600_LatLon0.15_PT141H.grib2 2026-05-01 04:29 524K
20260501T00Z_MSC_GDPS_GeopotentialHeight_IsbL-0650_LatLon0.15_PT141H.grib2 2026-05-01 04:29 689K
20260501T00Z_MSC_GDPS_GeopotentialHeight_IsbL-0700_LatLon0.15_PT141H.grib2 2026-05-01 04:29 687K
20260501T00Z_MSC_GDPS_GeopotentialHeight_IsbL-0750_LatLon0.15_PT141H.grib2 2026-05-01 04:29 697K
20260501T00Z_MSC_GDPS_GeopotentialHeight_IsbL-0800_LatLon0.15_PT141H.grib2 2026-05-01 04:29 705K
20260501T00Z_MSC_GDPS_GeopotentialHeight_IsbL-0850_LatLon0.15_PT141H.grib2 2026-05-01 04:29 716K
20260501T00Z_MSC_GDPS_GeopotentialHeight_IsbL-0875_LatLon0.15_PT141H.grib2 2026-05-01 04:29 720K
20260501T00Z_MSC_GDPS_GeopotentialHeight_IsbL-0900_LatLon0.15_PT141H.grib2 2026-05-01 04:29 724K
20260501T00Z_MSC_GDPS_GeopotentialHeight_IsbL-0925_LatLon0.15_PT141H.grib2 2026-05-01 04:29 732K
20260501T00Z_MSC_GDPS_GeopotentialHeight_IsbL-0950_LatLon0.15_PT141H.grib2 2026-05-01 04:29 739K
20260501T00Z_MSC_GDPS_GeopotentialHeight_IsbL-0970_LatLon0.15_PT141H.grib2 2026-05-01 04:29 749K
20260501T00Z_MSC_GDPS_GeopotentialHeight_IsbL-0985_LatLon0.15_PT141H.grib2 2026-05-01 04:29 763K
20260501T00Z_MSC_GDPS_GeopotentialHeight_IsbL-1000_LatLon0.15_PT141H.grib2 2026-05-01 04:29 783K
20260501T00Z_MSC_GDPS_GeopotentialHeight_IsbL-1015_LatLon0.15_PT141H.grib2 2026-05-01 04:29 804K
20260501T00Z_MSC_GDPS_Humidex_Sfc_LatLon0.15_PT141H.grib2 2026-05-01 04:29 5.3M
20260501T00Z_MSC_GDPS_IcePellets-Accum1h_Sfc_LatLon0.15_PT141H.grib2 2026-05-01 04:29 3.7K
20260501T00Z_MSC_GDPS_IcePellets-Accum3h_Sfc_LatLon0.15_PT141H.grib2 2026-05-01 04:29 4.6K
20260501T00Z_MSC_GDPS_IcePellets-Accum_Sfc_LatLon0.15_PT141H.grib2 2026-05-01 04:29 119K
20260501T00Z_MSC_GDPS_KIndex_Sfc_LatLon0.15_PT141H.grib2 2026-05-01 04:29 6.5M
20260501T00Z_MSC_GDPS_LatentHeatNetFlux_Sfc_LatLon0.15_PT141H.grib2 2026-05-01 04:29 675K
20260501T00Z_MSC_GDPS_LiftedIndex-MU-VT_IsbL-0500_LatLon0.15_PT141H.grib2 2026-05-01 04:29 5.3M
20260501T00Z_MSC_GDPS_NetLongwaveRadiationFlux-Accum_Sfc_LatLon0.15_PT141H.grib2 2026-05-01 04:29 1.1M
20260501T00Z_MSC_GDPS_NetShortwaveRadiationFlux-Accum_Sfc_LatLon0.15_PT141H.grib2 2026-05-01 04:29 1.0M
20260501T00Z_MSC_GDPS_O3MixingRatio_Sfc_LatLon0.15_PT141H.grib2 2026-05-01 04:51 1.9M
20260501T00Z_MSC_GDPS_O3_EAtm_LatLon0.15_PT141H.grib2 2026-05-01 04:51 2.4M
20260501T00Z_MSC_GDPS_PlanetaryBoundaryLayerHeight_Sfc_LatLon0.15_PT141H.grib2 2026-05-01 04:29 2.4M
20260501T00Z_MSC_GDPS_Precip-Accum1h_Sfc_LatLon0.15_PT141H.grib2 2026-05-01 04:29 3.2M
20260501T00Z_MSC_GDPS_Precip-Accum3h_Sfc_LatLon0.15_PT141H.grib2 2026-05-01 04:29 3.5M
20260501T00Z_MSC_GDPS_Precip-Accum_Sfc_LatLon0.15_PT141H.grib2 2026-05-01 04:29 4.9M
20260501T00Z_MSC_GDPS_PrecipRate_Sfc_LatLon0.15_PT141H.grib2 2026-05-01 04:29 3.0M
20260501T00Z_MSC_GDPS_PrecipType-Instant_Sfc_LatLon0.15_PT141H.grib2 2026-05-01 04:29 1.6M
20260501T00Z_MSC_GDPS_Pressure_MSL_LatLon0.15_PT141H.grib2 2026-05-01 04:29 720K
20260501T00Z_MSC_GDPS_Pressure_PVU-1.5_LatLon0.15_PT141H.grib2 2026-05-01 04:29 5.8M
20260501T00Z_MSC_GDPS_Pressure_PVU-1_LatLon0.15_PT141H.grib2 2026-05-01 04:29 6.0M
20260501T00Z_MSC_GDPS_Pressure_PVU-2_LatLon0.15_PT141H.grib2 2026-05-01 04:29 5.7M
20260501T00Z_MSC_GDPS_Pressure_Sfc_LatLon0.15_PT141H.grib2 2026-05-01 04:29 1.1M
20260501T00Z_MSC_GDPS_RadiativeTemp_Sfc_LatLon0.15_PT141H.grib2 2026-05-01 04:29 660K
20260501T00Z_MSC_GDPS_Rain-Accum1h_Sfc_LatLon0.15_PT141H.grib2 2026-05-01 04:29 1.6M
20260501T00Z_MSC_GDPS_Rain-Accum3h_Sfc_LatLon0.15_PT141H.grib2 2026-05-01 04:29 1.7M
20260501T00Z_MSC_GDPS_Rain-Accum_Sfc_LatLon0.15_PT141H.grib2 2026-05-01 04:29 3.8M
20260501T00Z_MSC_GDPS_RelativeHumidity_AGL-2m_LatLon0.15_PT141H.grib2 2026-05-01 04:29 1.0M
20260501T00Z_MSC_GDPS_RelativeHumidity_IsbL-0010_LatLon0.15_PT141H.grib2 2026-05-01 04:29 198K
20260501T00Z_MSC_GDPS_RelativeHumidity_IsbL-0020_LatLon0.15_PT141H.grib2 2026-05-01 04:29 160K
20260501T00Z_MSC_GDPS_RelativeHumidity_IsbL-0030_LatLon0.15_PT141H.grib2 2026-05-01 04:29 264K
20260501T00Z_MSC_GDPS_RelativeHumidity_IsbL-0050_LatLon0.15_PT141H.grib2 2026-05-01 04:29 331K
20260501T00Z_MSC_GDPS_RelativeHumidity_IsbL-0100_LatLon0.15_PT141H.grib2 2026-05-01 04:29 503K
20260501T00Z_MSC_GDPS_RelativeHumidity_IsbL-0150_LatLon0.15_PT141H.grib2 2026-05-01 04:29 669K
20260501T00Z_MSC_GDPS_RelativeHumidity_IsbL-0175_LatLon0.15_PT141H.grib2 2026-05-01 04:29 801K
20260501T00Z_MSC_GDPS_RelativeHumidity_IsbL-0200_LatLon0.15_PT141H.grib2 2026-05-01 04:29 715K
20260501T00Z_MSC_GDPS_RelativeHumidity_IsbL-0225_LatLon0.15_PT141H.grib2 2026-05-01 04:29 797K
20260501T00Z_MSC_GDPS_RelativeHumidity_IsbL-0250_LatLon0.15_PT141H.grib2 2026-05-01 04:29 869K
20260501T00Z_MSC_GDPS_RelativeHumidity_IsbL-0275_LatLon0.15_PT141H.grib2 2026-05-01 04:29 892K
20260501T00Z_MSC_GDPS_RelativeHumidity_IsbL-0300_LatLon0.15_PT141H.grib2 2026-05-01 04:29 933K
20260501T00Z_MSC_GDPS_RelativeHumidity_IsbL-0350_LatLon0.15_PT141H.grib2 2026-05-01 04:29 954K
20260501T00Z_MSC_GDPS_RelativeHumidity_IsbL-0400_LatLon0.15_PT141H.grib2 2026-05-01 04:29 1.0M
20260501T00Z_MSC_GDPS_RelativeHumidity_IsbL-0450_LatLon0.15_PT141H.grib2 2026-05-01 04:29 1.0M
20260501T00Z_MSC_GDPS_RelativeHumidity_IsbL-0500_LatLon0.15_PT141H.grib2 2026-05-01 04:29 1.0M
20260501T00Z_MSC_GDPS_RelativeHumidity_IsbL-0550_LatLon0.15_PT141H.grib2 2026-05-01 04:29 1.0M
20260501T00Z_MSC_GDPS_RelativeHumidity_IsbL-0600_LatLon0.15_PT141H.grib2 2026-05-01 04:29 1.0M
20260501T00Z_MSC_GDPS_RelativeHumidity_IsbL-0650_LatLon0.15_PT141H.grib2 2026-05-01 04:29 1.1M
20260501T00Z_MSC_GDPS_RelativeHumidity_IsbL-0700_LatLon0.15_PT141H.grib2 2026-05-01 04:29 1.1M
20260501T00Z_MSC_GDPS_RelativeHumidity_IsbL-0750_LatLon0.15_PT141H.grib2 2026-05-01 04:29 1.2M
20260501T00Z_MSC_GDPS_RelativeHumidity_IsbL-0800_LatLon0.15_PT141H.grib2 2026-05-01 04:29 1.2M
20260501T00Z_MSC_GDPS_RelativeHumidity_IsbL-0850_LatLon0.15_PT141H.grib2 2026-05-01 04:29 1.3M
20260501T00Z_MSC_GDPS_RelativeHumidity_IsbL-0875_LatLon0.15_PT141H.grib2 2026-05-01 04:29 1.3M
20260501T00Z_MSC_GDPS_RelativeHumidity_IsbL-0900_LatLon0.15_PT141H.grib2 2026-05-01 04:29 1.2M
20260501T00Z_MSC_GDPS_RelativeHumidity_IsbL-0925_LatLon0.15_PT141H.grib2 2026-05-01 04:29 1.2M
20260501T00Z_MSC_GDPS_RelativeHumidity_IsbL-0950_LatLon0.15_PT141H.grib2 2026-05-01 04:29 1.2M
20260501T00Z_MSC_GDPS_RelativeHumidity_IsbL-0970_LatLon0.15_PT141H.grib2 2026-05-01 04:29 1.2M
20260501T00Z_MSC_GDPS_RelativeHumidity_IsbL-0985_LatLon0.15_PT141H.grib2 2026-05-01 04:29 1.1M
20260501T00Z_MSC_GDPS_RelativeHumidity_IsbL-1000_LatLon0.15_PT141H.grib2 2026-05-01 04:29 1.1M
20260501T00Z_MSC_GDPS_RelativeHumidity_IsbL-1015_LatLon0.15_PT141H.grib2 2026-05-01 04:29 1.0M
20260501T00Z_MSC_GDPS_RelativeVorticity_IsbL-0200_LatLon0.15_PT141H.grib2 2026-05-01 04:29 1.5M
20260501T00Z_MSC_GDPS_RelativeVorticity_IsbL-0250_LatLon0.15_PT141H.grib2 2026-05-01 04:29 1.3M
20260501T00Z_MSC_GDPS_RelativeVorticity_IsbL-0500_LatLon0.15_PT141H.grib2 2026-05-01 04:29 1.5M
20260501T00Z_MSC_GDPS_RelativeVorticity_IsbL-0700_LatLon0.15_PT141H.grib2 2026-05-01 04:29 1.3M
20260501T00Z_MSC_GDPS_RelativeVorticity_IsbL-0850_LatLon0.15_PT141H.grib2 2026-05-01 04:29 1.6M
20260501T00Z_MSC_GDPS_Runoff-Accum_Sfc_LatLon0.15_PT141H.grib2 2026-05-01 04:29 154K
20260501T00Z_MSC_GDPS_SensibleHeatNetFlux_Sfc_LatLon0.15_PT141H.grib2 2026-05-01 04:29 454K
20260501T00Z_MSC_GDPS_ShowalterIndex_IsbL-0500_LatLon0.15_PT141H.grib2 2026-05-01 04:29 6.2M
20260501T00Z_MSC_GDPS_Snow-Accum1h_Sfc_LatLon0.15_PT141H.grib2 2026-05-01 04:29 1.1M
20260501T00Z_MSC_GDPS_Snow-Accum3h_Sfc_LatLon0.15_PT141H.grib2 2026-05-01 04:29 1.1M
20260501T00Z_MSC_GDPS_Snow-Accum_Sfc_LatLon0.15_PT141H.grib2 2026-05-01 04:29 2.0M
20260501T00Z_MSC_GDPS_SnowDensity_Sfc_LatLon0.15_PT141H.grib2 2026-05-01 04:29 260K
20260501T00Z_MSC_GDPS_SnowDepth_Sfc_LatLon0.15_PT141H.grib2 2026-05-01 04:29 1.7M
20260501T00Z_MSC_GDPS_SoilTemp_DBS-0to10cm_LatLon0.15_PT141H.grib2 2026-05-01 04:29 513K
20260501T00Z_MSC_GDPS_SoilTemp_Sfc_LatLon0.15_PT141H.grib2 2026-05-01 04:29 571K
20260501T00Z_MSC_GDPS_SoilVolumetricIceContent_Sfc_LatLon0.15_PT141H.grib2 2026-05-01 04:29 187K
20260501T00Z_MSC_GDPS_SoilVolumetricWaterContent_DBS-0to10cm_LatLon0.15_PT141H.grib2 2026-05-01 04:29 594K
20260501T00Z_MSC_GDPS_SoilVolumetricWaterContent_DBS-0to1cm_LatLon0.15_PT141H.grib2 2026-05-01 04:29 651K
20260501T00Z_MSC_GDPS_SpecificHumidity_AGL-120m_LatLon0.15_PT141H.grib2 2026-05-01 04:29 1.1M
20260501T00Z_MSC_GDPS_SpecificHumidity_AGL-2m_LatLon0.15_PT141H.grib2 2026-05-01 04:29 1.2M
20260501T00Z_MSC_GDPS_SpecificHumidity_AGL-40m_LatLon0.15_PT141H.grib2 2026-05-01 04:29 1.1M
20260501T00Z_MSC_GDPS_SpecificHumidity_AGL-80m_LatLon0.15_PT141H.grib2 2026-05-01 04:29 1.1M
20260501T00Z_MSC_GDPS_SpecificHumidity_IsbL-0001_LatLon0.15_PT141H.grib2 2026-05-01 04:29 1.2M
20260501T00Z_MSC_GDPS_SpecificHumidity_IsbL-0005_LatLon0.15_PT141H.grib2 2026-05-01 04:29 1.1M
20260501T00Z_MSC_GDPS_SpecificHumidity_IsbL-0010_LatLon0.15_PT141H.grib2 2026-05-01 04:29 1.2M
20260501T00Z_MSC_GDPS_SpecificHumidity_IsbL-0020_LatLon0.15_PT141H.grib2 2026-05-01 04:29 1.2M
20260501T00Z_MSC_GDPS_SpecificHumidity_IsbL-0030_LatLon0.15_PT141H.grib2 2026-05-01 04:29 1.5M
20260501T00Z_MSC_GDPS_SpecificHumidity_IsbL-0050_LatLon0.15_PT141H.grib2 2026-05-01 04:29 1.6M
20260501T00Z_MSC_GDPS_SpecificHumidity_IsbL-0100_LatLon0.15_PT141H.grib2 2026-05-01 04:29 1.3M
20260501T00Z_MSC_GDPS_SpecificHumidity_IsbL-0150_LatLon0.15_PT141H.grib2 2026-05-01 04:29 1.3M
20260501T00Z_MSC_GDPS_SpecificHumidity_IsbL-0175_LatLon0.15_PT141H.grib2 2026-05-01 04:29 1.2M
20260501T00Z_MSC_GDPS_SpecificHumidity_IsbL-0200_LatLon0.15_PT141H.grib2 2026-05-01 04:29 1.3M
20260501T00Z_MSC_GDPS_SpecificHumidity_IsbL-0225_LatLon0.15_PT141H.grib2 2026-05-01 04:29 1.3M
20260501T00Z_MSC_GDPS_SpecificHumidity_IsbL-0250_LatLon0.15_PT141H.grib2 2026-05-01 04:29 1.4M
20260501T00Z_MSC_GDPS_SpecificHumidity_IsbL-0275_LatLon0.15_PT141H.grib2 2026-05-01 04:29 1.3M
20260501T00Z_MSC_GDPS_SpecificHumidity_IsbL-0300_LatLon0.15_PT141H.grib2 2026-05-01 04:29 1.2M
20260501T00Z_MSC_GDPS_SpecificHumidity_IsbL-0350_LatLon0.15_PT141H.grib2 2026-05-01 04:29 1.2M
20260501T00Z_MSC_GDPS_SpecificHumidity_IsbL-0400_LatLon0.15_PT141H.grib2 2026-05-01 04:29 1.5M
20260501T00Z_MSC_GDPS_SpecificHumidity_IsbL-0450_LatLon0.15_PT141H.grib2 2026-05-01 04:29 1.6M
20260501T00Z_MSC_GDPS_SpecificHumidity_IsbL-0500_LatLon0.15_PT141H.grib2 2026-05-01 04:29 1.4M
20260501T00Z_MSC_GDPS_SpecificHumidity_IsbL-0550_LatLon0.15_PT141H.grib2 2026-05-01 04:29 1.6M
20260501T00Z_MSC_GDPS_SpecificHumidity_IsbL-0600_LatLon0.15_PT141H.grib2 2026-05-01 04:29 1.7M
20260501T00Z_MSC_GDPS_SpecificHumidity_IsbL-0650_LatLon0.15_PT141H.grib2 2026-05-01 04:29 1.5M
20260501T00Z_MSC_GDPS_SpecificHumidity_IsbL-0700_LatLon0.15_PT141H.grib2 2026-05-01 04:29 1.6M
20260501T00Z_MSC_GDPS_SpecificHumidity_IsbL-0750_LatLon0.15_PT141H.grib2 2026-05-01 04:29 1.7M
20260501T00Z_MSC_GDPS_SpecificHumidity_IsbL-0800_LatLon0.15_PT141H.grib2 2026-05-01 04:29 1.8M
20260501T00Z_MSC_GDPS_SpecificHumidity_IsbL-0850_LatLon0.15_PT141H.grib2 2026-05-01 04:29 1.9M
20260501T00Z_MSC_GDPS_SpecificHumidity_IsbL-0875_LatLon0.15_PT141H.grib2 2026-05-01 04:29 1.9M
20260501T00Z_MSC_GDPS_SpecificHumidity_IsbL-0900_LatLon0.15_PT141H.grib2 2026-05-01 04:29 1.6M
20260501T00Z_MSC_GDPS_SpecificHumidity_IsbL-0925_LatLon0.15_PT141H.grib2 2026-05-01 04:29 1.6M
20260501T00Z_MSC_GDPS_SpecificHumidity_IsbL-0950_LatLon0.15_PT141H.grib2 2026-05-01 04:29 1.6M
20260501T00Z_MSC_GDPS_SpecificHumidity_IsbL-0970_LatLon0.15_PT141H.grib2 2026-05-01 04:29 1.5M
20260501T00Z_MSC_GDPS_SpecificHumidity_IsbL-0985_LatLon0.15_PT141H.grib2 2026-05-01 04:29 1.5M
20260501T00Z_MSC_GDPS_SpecificHumidity_IsbL-1000_LatLon0.15_PT141H.grib2 2026-05-01 04:29 1.5M
20260501T00Z_MSC_GDPS_SpecificHumidity_IsbL-1015_LatLon0.15_PT141H.grib2 2026-05-01 04:29 1.5M
20260501T00Z_MSC_GDPS_SpecificHumidity_Sfc_LatLon0.15_PT141H.grib2 2026-05-01 04:29 666K
20260501T00Z_MSC_GDPS_Thickness_IsbL-0850to0700_LatLon0.15_PT141H.grib2 2026-05-01 04:29 469K
20260501T00Z_MSC_GDPS_Thickness_IsbL-1000to0500_LatLon0.15_PT141H.grib2 2026-05-01 04:29 374K
20260501T00Z_MSC_GDPS_Thickness_IsbL-1000to0850_LatLon0.15_PT141H.grib2 2026-05-01 04:29 488K
20260501T00Z_MSC_GDPS_TotalCloudCover_Sfc_LatLon0.15_PT141H.grib2 2026-05-01 04:29 818K
20260501T00Z_MSC_GDPS_TotalTotalsIndex_Sfc_LatLon0.15_PT141H.grib2 2026-05-01 04:29 6.2M
20260501T00Z_MSC_GDPS_UVIndex-ClearSky_Sfc_LatLon0.15_PT141H.grib2 2026-05-01 04:51 1.0M
20260501T00Z_MSC_GDPS_UVIndex_Sfc_LatLon0.15_PT141H.grib2 2026-05-01 04:51 1.5M
20260501T00Z_MSC_GDPS_UpwardLongwaveRadiationFlux_NTAtm_LatLon0.15_PT141H.grib2 2026-05-01 04:29 832K
20260501T00Z_MSC_GDPS_VerticalVelocity_IsbL-0200_LatLon0.15_PT141H.grib2 2026-05-01 04:29 1.2M
20260501T00Z_MSC_GDPS_VerticalVelocity_IsbL-0250_LatLon0.15_PT141H.grib2 2026-05-01 04:29 1.0M
20260501T00Z_MSC_GDPS_VerticalVelocity_IsbL-0500_LatLon0.15_PT141H.grib2 2026-05-01 04:29 1.0M
20260501T00Z_MSC_GDPS_VerticalVelocity_IsbL-0600_LatLon0.15_PT141H.grib2 2026-05-01 04:29 1.3M
20260501T00Z_MSC_GDPS_VerticalVelocity_IsbL-0700_LatLon0.15_PT141H.grib2 2026-05-01 04:29 1.1M
20260501T00Z_MSC_GDPS_VerticalVelocity_IsbL-0850_LatLon0.15_PT141H.grib2 2026-05-01 04:29 1.3M
20260501T00Z_MSC_GDPS_WindChill_Sfc_LatLon0.15_PT141H.grib2 2026-05-01 04:29 5.3M
20260501T00Z_MSC_GDPS_WindDir_AGL-10m_LatLon0.15_PT141H.grib2 2026-05-01 04:29 1.3M
20260501T00Z_MSC_GDPS_WindDir_AGL-120m_LatLon0.15_PT141H.grib2 2026-05-01 04:29 1.3M
20260501T00Z_MSC_GDPS_WindDir_AGL-40m_LatLon0.15_PT141H.grib2 2026-05-01 04:29 1.4M
20260501T00Z_MSC_GDPS_WindDir_AGL-80m_LatLon0.15_PT141H.grib2 2026-05-01 04:29 1.4M
20260501T00Z_MSC_GDPS_WindDir_IsbL-0001_LatLon0.15_PT141H.grib2 2026-05-01 04:29 673K
20260501T00Z_MSC_GDPS_WindDir_IsbL-0005_LatLon0.15_PT141H.grib2 2026-05-01 04:29 814K
20260501T00Z_MSC_GDPS_WindDir_IsbL-0010_LatLon0.15_PT141H.grib2 2026-05-01 04:29 828K
20260501T00Z_MSC_GDPS_WindDir_IsbL-0020_LatLon0.15_PT141H.grib2 2026-05-01 04:29 934K
20260501T00Z_MSC_GDPS_WindDir_IsbL-0030_LatLon0.15_PT141H.grib2 2026-05-01 04:29 933K
20260501T00Z_MSC_GDPS_WindDir_IsbL-0050_LatLon0.15_PT141H.grib2 2026-05-01 04:29 947K
20260501T00Z_MSC_GDPS_WindDir_IsbL-0100_LatLon0.15_PT141H.grib2 2026-05-01 04:29 1.0M
20260501T00Z_MSC_GDPS_WindDir_IsbL-0150_LatLon0.15_PT141H.grib2 2026-05-01 04:29 1.0M
20260501T00Z_MSC_GDPS_WindDir_IsbL-0175_LatLon0.15_PT141H.grib2 2026-05-01 04:29 1.0M
20260501T00Z_MSC_GDPS_WindDir_IsbL-0200_LatLon0.15_PT141H.grib2 2026-05-01 04:29 1.1M
20260501T00Z_MSC_GDPS_WindDir_IsbL-0225_LatLon0.15_PT141H.grib2 2026-05-01 04:29 1.1M
20260501T00Z_MSC_GDPS_WindDir_IsbL-0250_LatLon0.15_PT141H.grib2 2026-05-01 04:29 1.1M
20260501T00Z_MSC_GDPS_WindDir_IsbL-0275_LatLon0.15_PT141H.grib2 2026-05-01 04:29 1.2M
20260501T00Z_MSC_GDPS_WindDir_IsbL-0300_LatLon0.15_PT141H.grib2 2026-05-01 04:29 1.2M
20260501T00Z_MSC_GDPS_WindDir_IsbL-0350_LatLon0.15_PT141H.grib2 2026-05-01 04:29 1.2M
20260501T00Z_MSC_GDPS_WindDir_IsbL-0400_LatLon0.15_PT141H.grib2 2026-05-01 04:29 1.3M
20260501T00Z_MSC_GDPS_WindDir_IsbL-0450_LatLon0.15_PT141H.grib2 2026-05-01 04:29 1.3M
20260501T00Z_MSC_GDPS_WindDir_IsbL-0500_LatLon0.15_PT141H.grib2 2026-05-01 04:29 1.4M
20260501T00Z_MSC_GDPS_WindDir_IsbL-0550_LatLon0.15_PT141H.grib2 2026-05-01 04:29 1.4M
20260501T00Z_MSC_GDPS_WindDir_IsbL-0600_LatLon0.15_PT141H.grib2 2026-05-01 04:29 1.4M
20260501T00Z_MSC_GDPS_WindDir_IsbL-0650_LatLon0.15_PT141H.grib2 2026-05-01 04:29 1.5M
20260501T00Z_MSC_GDPS_WindDir_IsbL-0700_LatLon0.15_PT141H.grib2 2026-05-01 04:29 1.6M
20260501T00Z_MSC_GDPS_WindDir_IsbL-0750_LatLon0.15_PT141H.grib2 2026-05-01 04:29 1.7M
20260501T00Z_MSC_GDPS_WindDir_IsbL-0800_LatLon0.15_PT141H.grib2 2026-05-01 04:29 1.8M
20260501T00Z_MSC_GDPS_WindDir_IsbL-0850_LatLon0.15_PT141H.grib2 2026-05-01 04:29 1.9M
20260501T00Z_MSC_GDPS_WindDir_IsbL-0875_LatLon0.15_PT141H.grib2 2026-05-01 04:29 1.9M
20260501T00Z_MSC_GDPS_WindDir_IsbL-0900_LatLon0.15_PT141H.grib2 2026-05-01 04:29 2.0M
20260501T00Z_MSC_GDPS_WindDir_IsbL-0925_LatLon0.15_PT141H.grib2 2026-05-01 04:29 2.0M
20260501T00Z_MSC_GDPS_WindDir_IsbL-0950_LatLon0.15_PT141H.grib2 2026-05-01 04:29 2.0M
20260501T00Z_MSC_GDPS_WindDir_IsbL-0970_LatLon0.15_PT141H.grib2 2026-05-01 04:29 2.0M
20260501T00Z_MSC_GDPS_WindDir_IsbL-0985_LatLon0.15_PT141H.grib2 2026-05-01 04:29 2.0M
20260501T00Z_MSC_GDPS_WindDir_IsbL-1000_LatLon0.15_PT141H.grib2 2026-05-01 04:29 2.0M
20260501T00Z_MSC_GDPS_WindDir_IsbL-1015_LatLon0.15_PT141H.grib2 2026-05-01 04:29 2.0M
20260501T00Z_MSC_GDPS_WindGust-Max_AGL-10m_LatLon0.15_PT141H.grib2 2026-05-01 04:29 2.2M
20260501T00Z_MSC_GDPS_WindGust-Min_AGL-10m_LatLon0.15_PT141H.grib2 2026-05-01 04:29 2.2M
20260501T00Z_MSC_GDPS_WindGust_AGL-10m_LatLon0.15_PT141H.grib2 2026-05-01 04:29 2.2M
20260501T00Z_MSC_GDPS_WindSpeed_AGL-10m_LatLon0.15_PT141H.grib2 2026-05-01 04:29 1.1M
20260501T00Z_MSC_GDPS_WindSpeed_AGL-120m_LatLon0.15_PT141H.grib2 2026-05-01 04:29 1.2M
20260501T00Z_MSC_GDPS_WindSpeed_AGL-40m_LatLon0.15_PT141H.grib2 2026-05-01 04:29 1.2M
20260501T00Z_MSC_GDPS_WindSpeed_AGL-80m_LatLon0.15_PT141H.grib2 2026-05-01 04:29 1.2M
20260501T00Z_MSC_GDPS_WindSpeed_IsbL-0001_LatLon0.15_PT141H.grib2 2026-05-01 04:29 651K
20260501T00Z_MSC_GDPS_WindSpeed_IsbL-0005_LatLon0.15_PT141H.grib2 2026-05-01 04:29 690K
20260501T00Z_MSC_GDPS_WindSpeed_IsbL-0010_LatLon0.15_PT141H.grib2 2026-05-01 04:29 626K
20260501T00Z_MSC_GDPS_WindSpeed_IsbL-0020_LatLon0.15_PT141H.grib2 2026-05-01 04:29 663K
20260501T00Z_MSC_GDPS_WindSpeed_IsbL-0030_LatLon0.15_PT141H.grib2 2026-05-01 04:29 860K
20260501T00Z_MSC_GDPS_WindSpeed_IsbL-0050_LatLon0.15_PT141H.grib2 2026-05-01 04:29 897K
20260501T00Z_MSC_GDPS_WindSpeed_IsbL-0100_LatLon0.15_PT141H.grib2 2026-05-01 04:29 1.1M
20260501T00Z_MSC_GDPS_WindSpeed_IsbL-0150_LatLon0.15_PT141H.grib2 2026-05-01 04:29 1.0M
20260501T00Z_MSC_GDPS_WindSpeed_IsbL-0175_LatLon0.15_PT141H.grib2 2026-05-01 04:29 1.0M
20260501T00Z_MSC_GDPS_WindSpeed_IsbL-0200_LatLon0.15_PT141H.grib2 2026-05-01 04:29 1.1M
20260501T00Z_MSC_GDPS_WindSpeed_IsbL-0225_LatLon0.15_PT141H.grib2 2026-05-01 04:29 1.1M
20260501T00Z_MSC_GDPS_WindSpeed_IsbL-0250_LatLon0.15_PT141H.grib2 2026-05-01 04:29 1.1M
20260501T00Z_MSC_GDPS_WindSpeed_IsbL-0275_LatLon0.15_PT141H.grib2 2026-05-01 04:29 1.1M
20260501T00Z_MSC_GDPS_WindSpeed_IsbL-0300_LatLon0.15_PT141H.grib2 2026-05-01 04:29 1.1M
20260501T00Z_MSC_GDPS_WindSpeed_IsbL-0350_LatLon0.15_PT141H.grib2 2026-05-01 04:29 1.1M
20260501T00Z_MSC_GDPS_WindSpeed_IsbL-0400_LatLon0.15_PT141H.grib2 2026-05-01 04:29 1.1M
20260501T00Z_MSC_GDPS_WindSpeed_IsbL-0450_LatLon0.15_PT141H.grib2 2026-05-01 04:29 1.1M
20260501T00Z_MSC_GDPS_WindSpeed_IsbL-0500_LatLon0.15_PT141H.grib2 2026-05-01 04:29 1.1M
20260501T00Z_MSC_GDPS_WindSpeed_IsbL-0550_LatLon0.15_PT141H.grib2 2026-05-01 04:29 1.1M
20260501T00Z_MSC_GDPS_WindSpeed_IsbL-0600_LatLon0.15_PT141H.grib2 2026-05-01 04:29 1.1M
20260501T00Z_MSC_GDPS_WindSpeed_IsbL-0650_LatLon0.15_PT141H.grib2 2026-05-01 04:29 1.4M
20260501T00Z_MSC_GDPS_WindSpeed_IsbL-0700_LatLon0.15_PT141H.grib2 2026-05-01 04:29 1.5M
20260501T00Z_MSC_GDPS_WindSpeed_IsbL-0750_LatLon0.15_PT141H.grib2 2026-05-01 04:29 1.6M
20260501T00Z_MSC_GDPS_WindSpeed_IsbL-0800_LatLon0.15_PT141H.grib2 2026-05-01 04:29 1.6M
20260501T00Z_MSC_GDPS_WindSpeed_IsbL-0850_LatLon0.15_PT141H.grib2 2026-05-01 04:29 1.7M
20260501T00Z_MSC_GDPS_WindSpeed_IsbL-0875_LatLon0.15_PT141H.grib2 2026-05-01 04:29 1.8M
20260501T00Z_MSC_GDPS_WindSpeed_IsbL-0900_LatLon0.15_PT141H.grib2 2026-05-01 04:29 1.8M
20260501T00Z_MSC_GDPS_WindSpeed_IsbL-0925_LatLon0.15_PT141H.grib2 2026-05-01 04:29 1.8M
20260501T00Z_MSC_GDPS_WindSpeed_IsbL-0950_LatLon0.15_PT141H.grib2 2026-05-01 04:29 1.9M
20260501T00Z_MSC_GDPS_WindSpeed_IsbL-0970_LatLon0.15_PT141H.grib2 2026-05-01 04:29 1.9M
20260501T00Z_MSC_GDPS_WindSpeed_IsbL-0985_LatLon0.15_PT141H.grib2 2026-05-01 04:29 1.8M
20260501T00Z_MSC_GDPS_WindSpeed_IsbL-1000_LatLon0.15_PT141H.grib2 2026-05-01 04:29 1.8M
20260501T00Z_MSC_GDPS_WindSpeed_IsbL-1015_LatLon0.15_PT141H.grib2 2026-05-01 04:29 1.8M
20260501T00Z_MSC_GDPS_WindU_AGL-10m_LatLon0.15_PT141H.grib2 2026-05-01 04:29 1.3M
20260501T00Z_MSC_GDPS_WindU_AGL-120m_LatLon0.15_PT141H.grib2 2026-05-01 04:29 972K
20260501T00Z_MSC_GDPS_WindU_AGL-40m_LatLon0.15_PT141H.grib2 2026-05-01 04:29 965K
20260501T00Z_MSC_GDPS_WindU_AGL-80m_LatLon0.15_PT141H.grib2 2026-05-01 04:29 971K
20260501T00Z_MSC_GDPS_WindU_IsbL-0001_LatLon0.15_PT141H.grib2 2026-05-01 04:29 503K
20260501T00Z_MSC_GDPS_WindU_IsbL-0005_LatLon0.15_PT141H.grib2 2026-05-01 04:29 692K
20260501T00Z_MSC_GDPS_WindU_IsbL-0010_LatLon0.15_PT141H.grib2 2026-05-01 04:29 701K
20260501T00Z_MSC_GDPS_WindU_IsbL-0020_LatLon0.15_PT141H.grib2 2026-05-01 04:29 730K
20260501T00Z_MSC_GDPS_WindU_IsbL-0030_LatLon0.15_PT141H.grib2 2026-05-01 04:29 737K
20260501T00Z_MSC_GDPS_WindU_IsbL-0050_LatLon0.15_PT141H.grib2 2026-05-01 04:29 762K
20260501T00Z_MSC_GDPS_WindU_IsbL-0100_LatLon0.15_PT141H.grib2 2026-05-01 04:29 861K
20260501T00Z_MSC_GDPS_WindU_IsbL-0150_LatLon0.15_PT141H.grib2 2026-05-01 04:29 1.0M
20260501T00Z_MSC_GDPS_WindU_IsbL-0175_LatLon0.15_PT141H.grib2 2026-05-01 04:29 1.0M
20260501T00Z_MSC_GDPS_WindU_IsbL-0200_LatLon0.15_PT141H.grib2 2026-05-01 04:29 841K
20260501T00Z_MSC_GDPS_WindU_IsbL-0225_LatLon0.15_PT141H.grib2 2026-05-01 04:29 853K
20260501T00Z_MSC_GDPS_WindU_IsbL-0250_LatLon0.15_PT141H.grib2 2026-05-01 04:29 854K
20260501T00Z_MSC_GDPS_WindU_IsbL-0275_LatLon0.15_PT141H.grib2 2026-05-01 04:29 881K
20260501T00Z_MSC_GDPS_WindU_IsbL-0300_LatLon0.15_PT141H.grib2 2026-05-01 04:29 875K
20260501T00Z_MSC_GDPS_WindU_IsbL-0350_LatLon0.15_PT141H.grib2 2026-05-01 04:29 890K
20260501T00Z_MSC_GDPS_WindU_IsbL-0400_LatLon0.15_PT141H.grib2 2026-05-01 04:29 1.1M
20260501T00Z_MSC_GDPS_WindU_IsbL-0450_LatLon0.15_PT141H.grib2 2026-05-01 04:29 1.1M
20260501T00Z_MSC_GDPS_WindU_IsbL-0500_LatLon0.15_PT141H.grib2 2026-05-01 04:29 1.1M
20260501T00Z_MSC_GDPS_WindU_IsbL-0550_LatLon0.15_PT141H.grib2 2026-05-01 04:29 1.1M
20260501T00Z_MSC_GDPS_WindU_IsbL-0600_LatLon0.15_PT141H.grib2 2026-05-01 04:29 1.1M
20260501T00Z_MSC_GDPS_WindU_IsbL-0650_LatLon0.15_PT141H.grib2 2026-05-01 04:29 1.2M
20260501T00Z_MSC_GDPS_WindU_IsbL-0700_LatLon0.15_PT141H.grib2 2026-05-01 04:29 1.2M
20260501T00Z_MSC_GDPS_WindU_IsbL-0750_LatLon0.15_PT141H.grib2 2026-05-01 04:29 1.3M
20260501T00Z_MSC_GDPS_WindU_IsbL-0800_LatLon0.15_PT141H.grib2 2026-05-01 04:29 1.4M
20260501T00Z_MSC_GDPS_WindU_IsbL-0850_LatLon0.15_PT141H.grib2 2026-05-01 04:29 1.4M
20260501T00Z_MSC_GDPS_WindU_IsbL-0875_LatLon0.15_PT141H.grib2 2026-05-01 04:29 1.5M
20260501T00Z_MSC_GDPS_WindU_IsbL-0900_LatLon0.15_PT141H.grib2 2026-05-01 04:29 1.5M
20260501T00Z_MSC_GDPS_WindU_IsbL-0925_LatLon0.15_PT141H.grib2 2026-05-01 04:29 1.5M
20260501T00Z_MSC_GDPS_WindU_IsbL-0950_LatLon0.15_PT141H.grib2 2026-05-01 04:29 1.4M
20260501T00Z_MSC_GDPS_WindU_IsbL-0970_LatLon0.15_PT141H.grib2 2026-05-01 04:29 1.4M
20260501T00Z_MSC_GDPS_WindU_IsbL-0985_LatLon0.15_PT141H.grib2 2026-05-01 04:29 1.4M
20260501T00Z_MSC_GDPS_WindU_IsbL-1000_LatLon0.15_PT141H.grib2 2026-05-01 04:29 1.4M
20260501T00Z_MSC_GDPS_WindU_IsbL-1015_LatLon0.15_PT141H.grib2 2026-05-01 04:29 1.3M
20260501T00Z_MSC_GDPS_WindV_AGL-10m_LatLon0.15_PT141H.grib2 2026-05-01 04:29 1.6M
20260501T00Z_MSC_GDPS_WindV_AGL-120m_LatLon0.15_PT141H.grib2 2026-05-01 04:29 1.0M
20260501T00Z_MSC_GDPS_WindV_AGL-40m_LatLon0.15_PT141H.grib2 2026-05-01 04:29 968K
20260501T00Z_MSC_GDPS_WindV_AGL-80m_LatLon0.15_PT141H.grib2 2026-05-01 04:29 1.0M
20260501T00Z_MSC_GDPS_WindV_IsbL-0001_LatLon0.15_PT141H.grib2 2026-05-01 04:29 781K
20260501T00Z_MSC_GDPS_WindV_IsbL-0005_LatLon0.15_PT141H.grib2 2026-05-01 04:29 857K
20260501T00Z_MSC_GDPS_WindV_IsbL-0010_LatLon0.15_PT141H.grib2 2026-05-01 04:29 790K
20260501T00Z_MSC_GDPS_WindV_IsbL-0020_LatLon0.15_PT141H.grib2 2026-05-01 04:29 848K
20260501T00Z_MSC_GDPS_WindV_IsbL-0030_LatLon0.15_PT141H.grib2 2026-05-01 04:29 851K
20260501T00Z_MSC_GDPS_WindV_IsbL-0050_LatLon0.15_PT141H.grib2 2026-05-01 04:29 1.0M
20260501T00Z_MSC_GDPS_WindV_IsbL-0100_LatLon0.15_PT141H.grib2 2026-05-01 04:29 1.1M
20260501T00Z_MSC_GDPS_WindV_IsbL-0150_LatLon0.15_PT141H.grib2 2026-05-01 04:29 1.0M
20260501T00Z_MSC_GDPS_WindV_IsbL-0175_LatLon0.15_PT141H.grib2 2026-05-01 04:29 1.0M
20260501T00Z_MSC_GDPS_WindV_IsbL-0200_LatLon0.15_PT141H.grib2 2026-05-01 04:29 837K
20260501T00Z_MSC_GDPS_WindV_IsbL-0225_LatLon0.15_PT141H.grib2 2026-05-01 04:29 906K
20260501T00Z_MSC_GDPS_WindV_IsbL-0250_LatLon0.15_PT141H.grib2 2026-05-01 04:29 909K
20260501T00Z_MSC_GDPS_WindV_IsbL-0275_LatLon0.15_PT141H.grib2 2026-05-01 04:29 935K
20260501T00Z_MSC_GDPS_WindV_IsbL-0300_LatLon0.15_PT141H.grib2 2026-05-01 04:29 929K
20260501T00Z_MSC_GDPS_WindV_IsbL-0350_LatLon0.15_PT141H.grib2 2026-05-01 04:29 883K
20260501T00Z_MSC_GDPS_WindV_IsbL-0400_LatLon0.15_PT141H.grib2 2026-05-01 04:29 885K
20260501T00Z_MSC_GDPS_WindV_IsbL-0450_LatLon0.15_PT141H.grib2 2026-05-01 04:29 884K
20260501T00Z_MSC_GDPS_WindV_IsbL-0500_LatLon0.15_PT141H.grib2 2026-05-01 04:29 889K
20260501T00Z_MSC_GDPS_WindV_IsbL-0550_LatLon0.15_PT141H.grib2 2026-05-01 04:29 1.1M
20260501T00Z_MSC_GDPS_WindV_IsbL-0600_LatLon0.15_PT141H.grib2 2026-05-01 04:29 1.1M
20260501T00Z_MSC_GDPS_WindV_IsbL-0650_LatLon0.15_PT141H.grib2 2026-05-01 04:29 1.2M
20260501T00Z_MSC_GDPS_WindV_IsbL-0700_LatLon0.15_PT141H.grib2 2026-05-01 04:29 1.2M
20260501T00Z_MSC_GDPS_WindV_IsbL-0750_LatLon0.15_PT141H.grib2 2026-05-01 04:29 1.3M
20260501T00Z_MSC_GDPS_WindV_IsbL-0800_LatLon0.15_PT141H.grib2 2026-05-01 04:29 1.3M
20260501T00Z_MSC_GDPS_WindV_IsbL-0850_LatLon0.15_PT141H.grib2 2026-05-01 04:29 1.4M
20260501T00Z_MSC_GDPS_WindV_IsbL-0875_LatLon0.15_PT141H.grib2 2026-05-01 04:29 1.4M
20260501T00Z_MSC_GDPS_WindV_IsbL-0900_LatLon0.15_PT141H.grib2 2026-05-01 04:29 1.5M
20260501T00Z_MSC_GDPS_WindV_IsbL-0925_LatLon0.15_PT141H.grib2 2026-05-01 04:29 1.5M
20260501T00Z_MSC_GDPS_WindV_IsbL-0950_LatLon0.15_PT141H.grib2 2026-05-01 04:29 1.4M
20260501T00Z_MSC_GDPS_WindV_IsbL-0970_LatLon0.15_PT141H.grib2 2026-05-01 04:29 1.4M
20260501T00Z_MSC_GDPS_WindV_IsbL-0985_LatLon0.15_PT141H.grib2 2026-05-01 04:29 1.4M
20260501T00Z_MSC_GDPS_WindV_IsbL-1000_LatLon0.15_PT141H.grib2 2026-05-01 04:29 1.7M
20260501T00Z_MSC_GDPS_WindV_IsbL-1015_LatLon0.15_PT141H.grib2 2026-05-01 04:29 1.6M